Southern Illinois Airport
KMDH : now visible

Airfield :











YOU CAN JOIN US ON...

 
LOGIN :

Register | Disclaimer

   EN    FR    IT 

 









Legend :    VFR   Marginal VFR   IFR   Intensive IFR   Very Intensive IFR
Visi :
Ceiling :
>= 8 km
>= 3000ft
5 to 8 km
1000 to 3000 ft
1500m to 5 km
500 to 1000 ft
800 to 1500m
200 to 500 ft
< 800m
< 200 ft
Symbols :   Thunderstorms  Fog  Heavy snow  Heavy precipitations  Wind > 20 kt






- Airport Elevation : 411 ft
- IATA code : MDH


KMDH - Southern Illinois

CURRENT METAR :
  • 030852Z AUTO 14005KT 9SM BKN090 21/19 A2994 RMK AO2 LTG DSNT E RAE14 SLP136 P0002 60003 T02060194 58004 $

EXPIRED METARs :
  • 030752Z AUTO 30003KT 6SM -RA BR FEW050 SCT060 BKN070 21/20 A2996 RMK AO2 RAB45 SLP140 P0001 T02110200 $
  • 030652Z AUTO 16004KT 6SM BR BKN050 BKN065 21/19 A2996 RMK AO2 SLP141 T02060194 $

TAF N/A
KZKC FIR / North America



MET'MAP, your aeronautical weather chart ! - Copyright ORBIFLY December 2007 - Disclaimer

ORBIFLY MET'MAP TEAM :

Programming & Development : Alexandra Zaïnal
Concept & original design : Baudouin d'Aumeries
Assistance for programming : Marc-Olivier Méhu
Technical & hardware support : Manuel Goepfert

Contact : metmap@orbifly.com




SOURCES & CREDITS :

   NOAA       Earth
Advisory